Location: Kalberh�ni
(46.4610°N, 7.2453°E)
Time: 06:57:37
(UTC+00:00)

Cosmos 2360 Rocket - Pass Details

Date: 20 June 2021
Orbit: 835 x 843 km, 71.0° (Epoch: 28 July)

Event Time Altitude Azimuth Distance (km) Brightness Sun altitude
Rises 20:38:26 0° 211° (SSW) 3,382 5.1 -9.8°
Reaches altitude 10° 20:40:53 10° 214° (SW) 2,450 4.4 -10.0°
Maximum altitude 20:46:29 71° 298° (WNW) 886 2.5 -10.6°
Drops below altitude 10° 20:52:08 10° 23° (NNE) 2,460 5.0 -11.2°
Sets 20:54:36 0° 26° (NNE) 3,397 5.7 -11.5°
